Uitslag Triatlon Roeselare top 3

Kraftman Chrono Timing
# Naam Totaal
1 (1) Van De Walle Vincent 00:56:45 92.53
2 (2) Priem Whytic 00:57:26 90.78
3 (3) Verstraete Eduard 00:58:00 90.15
4 (4) Van Daele Tim 00:58:08 90.01
5 (5) Dewitte Lowie 00:58:12 89.93
6 (6) Sabbe Jasper 00:59:34 88.43
7 (7) Vandenbroucke Sven 01:00:08 87.80
8 (8) Steyaert Kris 01:00:14 87.69
9 (9) Santy Vincent 01:00:24 87.51
10 (10) Lagae Korneel 01:00:51 87.01
11 (11) Vanhoutte Jaron 01:01:17 86.54
12 (12) Verkempinck Ruben 01:01:33 86.24
13 (13) Bruyneel Jurgen 01:02:16 85.45
14 (14) Vankelecom Jeroen 01:02:24 85.31
15 (15) Breemeersch Lieven 01:02:26 85.27
16 (16) Van Haverbeke Arno 01:02:28 85.23
17 (17) Lagache Stijn 01:02:35 85.11
18 (18) Beernaert Jochen 01:02:43 84.96
19 (19) Desmet Cis 01:03:44 83.84
20 (20) Veranneman Tom 01:04:01 83.53
21 (21) Goethals Angelo 01:04:11 83.34
22 (22) Bruffaerts Stefaan 01:04:18 83.22
23 (23) Cardon Germer 01:04:26 83.07
24 (24) Van Hevele Stijn 01:04:34 82.92
25 (25) Tritar Mehdi 01:04:50 82.63
26 (26) Dekiere Thijs 01:05:02 82.41
27 (27) Roelandts Geert 01:05:25 81.99
28 (28) Callens Bart 01:05:32 81.86
29 (29) Vercaigne Dieter 01:05:35 81.80
30 (30) Devloo Dries 01:05:57 81.40
31 (31) Rigole Filip 01:06:16 81.05
32 (32) Boury Steven 01:06:34 80.72
33 (33) Defauw lieven 01:06:48 80.46
34 (34) Meul Jochen 01:07:08 80.09
35 (35) Meerschaert Dieter 01:07:16 79.95
36 (36) Warnez Wouter 01:07:26 79.76
37 (37) Dewulf Christophe 01:07:27 79.75
38 (38) Verstraete Pieter 01:07:30 79.69
39 (39) Feryn Dries 01:07:37 79.56
40 (40) Pype Benedikt 01:07:47 79.38
41 (41) Van De Velde Stieven 01:07:50 79.32
42 (42) Vanthomme Simon 01:07:50 79.32
43 (43) Tempelaere Brecht 01:08:04 79.07
44 (44) Malfait Gianni 01:08:11 78.94
45 (45) De Meester Wim 01:08:20 78.77
46 (46) Van Eeckhout Thibault 01:08:26 78.66
47 (47) Kimpe Kim 01:08:28 78.63
48 (48) Tuytens Stijn 01:08:30 78.59
49 (49) De Groof Pieter 01:08:33 78.53
50 (50) Cassaert Brecht 01:08:37 78.46
51 (51) Calmeyn Klaas 01:08:39 78.42
52 (52) Blontia Nico 01:08:39 78.42
53 (53) Huyghe Stefaan 01:08:46 78.30
54 (54) Matton Tom 01:08:47 78.28
55 (55) Andries Louis 01:08:54 78.15
56 (56) Watteyne Frederic 01:08:58 78.08
57 (57) Decock Lucas 01:08:59 78.06
58 (58) Stijn Hollevoet 01:09:01 78.02
59 (59) Waeyaert Dieter 01:09:04 77.97
60 (60) Toebat Andrew 01:09:05 77.95
61 (61) Vandorpe Peter 01:09:09 77.87
62 (63) Dousy Frederik 01:09:42 77.27
63 (64) Naert Joran 01:09:42 77.27
64 (65) Deslé Tim 01:09:44 77.23
65 (66) Denecker Steven 01:09:44 77.23
66 (67) Daems Tom 01:09:49 77.14
67 (68) Jacobs Philippe 01:10:05 76.85
68 (69) Vanbrabant Bjorn 01:10:08 76.79
69 (70) Moeyaert Robin 01:10:10 76.75
70 (71) Clauw Björn 01:10:11 76.74
71 (72) Maes Aäron 01:10:15 76.66
72 (73) Callebaut Christophe 01:10:16 76.64
73 (75) Ingelbrecht Nico 01:10:26 76.46
74 (77) Verfaillie Marnix 01:10:31 76.37
75 (78) Bruneel Kennith 01:10:38 76.24
76 (79) Vancoillie Bram 01:10:49 76.04
77 (80) Van compernolle Pieter 01:10:53 75.97
78 (81) Decoene Sam 01:10:59 75.85
79 (82) Borny Dimitri 01:11:28 75.32
80 (83) Ameye Kevin 01:11:33 75.23
81 (84) Heirman Pieter 01:11:44 75.03
82 (85) Mat Rene 01:11:45 75.01
83 (86) Bortier Jurgen 01:12:12 74.51
84 (87) Vander Meiren Sam 01:12:17 74.42
85 (88) Verholle Glenn 01:12:21 74.35
86 (89) Deboeuf Laurens 01:12:25 74.28
87 (90) D'haene Kurt 01:12:36 74.07
88 (91) Cuvelier Dieter 01:12:41 73.98
89 (92) Acke Wim 01:13:08 73.49
90 (95) Vanspeybroeck Bart 01:14:03 72.48
91 (96) Ballyn Korneel 01:14:10 72.35
92 (97) Mol Joris 01:14:13 72.29
93 (98) Denolf Peter 01:14:21 72.15
94 (99) Dermul Bart 01:14:26 72.06
95 (100) Soenen Björn 01:14:31 71.96
96 (101) Maertens Koen 01:14:39 71.82
97 (102) Lagacie Pieter 01:14:41 71.78
98 (103) Demasure Woud 01:14:41 71.78
99 (104) Bossuyt Johan 01:14:42 71.76
100 (105) Declercq Korneel 01:15:01 71.41
101 (106) Van De Keere Kristof 01:15:04 71.36
102 (108) Lyphout Bart 01:15:25 70.97
103 (111) Bracke Yves 01:15:42 70.66
104 (112) Delcourt Sylvester 01:15:50 70.51
105 (114) Cattrysse Sam 01:16:01 70.31
106 (115) Desmedt Filip 01:16:06 70.22
107 (116) Lybeer Jonas 01:16:09 70.16
108 (117) Devos Lieven 01:16:11 70.13
109 (118) Vanderhaeghe Dries 01:16:11 70.13
110 (119) Planckaert Nico 01:16:15 70.05
111 (120) Loontjens Quinten 01:16:18 70.00
112 (121) Saelen Mathieu 01:16:24 69.89
113 (122) Bruneel Axel 01:16:27 69.83
114 (123) Pardaens Bert 01:16:29 69.80
115 (125) Meurisse Ricardo 01:16:58 69.27
116 (126) Vanderdonckt Stijn 01:17:02 69.19
117 (127) Hollevoet Steven 01:17:08 69.08
118 (128) Carly Rien 01:17:10 69.05
119 (131) Dewyspelaere Michiel 01:17:23 68.81
120 (132) Vancraeynest Koen 01:17:25 68.77
121 (133) Gruyaert Emmerson 01:17:27 68.73
122 (134) Van Haute Rens 01:17:32 68.64
123 (135) Secember Bjorn 01:17:58 68.16
124 (136) Braeye Toon 01:18:27 67.63
125 (137) Godderis Luc 01:19:01 67.01
126 (138) Lambelin Andy 01:19:08 66.88
127 (140) Prils Stephan 01:19:25 66.57
128 (141) Vuylsteke Martijn 01:19:43 66.24
129 (143) De Jaeger Jasper 01:20:08 65.78
130 (145) Dils Sam 01:20:25 65.47
131 (146) De Laere Gregory 01:20:31 65.36
132 (148) Gryp Servaas 01:20:42 65.15
133 (150) Favyts Jurgen 01:20:53 64.95
134 (152) Decoster Ruben 01:21:25 64.36
135 (153) Fehervari William 01:21:33 64.22
136 (154) Baert Wouter 01:21:35 64.18
137 (155) Depoortere Dries 01:21:40 64.09
138 (156) Goossens Martin 01:21:42 64.05
139 (160) Hemelaere Harold 01:22:22 63.32
140 (161) Eeckhout Hans 01:22:23 63.30
141 (165) Lievens Jeremy 01:22:40 62.99
142 (166) Brecht Brackeva 01:22:48 62.84
143 (167) Vanhecke Stan 01:22:49 62.82
144 (168) Vandenhende Arne 01:22:50 62.80
145 (169) Claus Mike 01:23:30 62.07
146 (170) Geerardyn Gino 01:23:38 61.92
147 (171) Vermeulen Ward 01:23:46 61.78
148 (173) Ghekiere Jasper 01:24:36 60.86
149 (174) Maelfait Steven 01:24:49 60.62
150 (177) Lesage Wim 01:25:46 59.57
151 (179) Rondelez Tom 01:26:32 58.73
152 (182) De Greef Bruno 01:26:56 58.29
153 (183) Grymonprez Jens 01:27:06 58.11
154 (184) Vanoplynes Steven 01:27:16 57.92
155 (185) Crispeyn Jimmy 01:28:08 56.97
156 (187) Gysemans Stijn 01:29:45 55.19
157 (191) Verschoore Hans 01:31:27 53.32
158 (192) Cornet Thomas 01:31:45 52.98
159 (193) Holderbeke Arne 01:32:05 52.62
160 (196) Dendooven Matthias 01:32:36 52.05
161 (197) Van De Calseyde Bruno 01:33:42 50.84
162 (200) Notredame Filip 01:34:50 49.59
163 (201) Declercq Koen 01:34:59 49.42
164 (203) Versyck Dieter 01:35:11 49.20
165 (204) Van Boven Nicolas 01:35:16 49.11
166 (205) Spaas Maxime 01:35:21 49.02
167 (206) Molik Christian 01:35:31 48.84
168 (207) Burkhardt Arthur 01:35:36 48.74
169 (209) Jeandarme Philip 01:37:07 47.07
170 (211) Verbrugghe Glenn 01:37:38 46.51
171 (212) Gentier Chris 01:39:25 44.54
172 (214) Malfait GaËtan 01:40:14 43.64
173 (216) Chapaux Francois 01:43:04 40.52
174 (217) De Haes Stijn 01:44:23 39.07
175 (219) Bostoen Glenn 01:46:03 37.24
176 (222) Tsagaraev Salman 01:50:45 31.56

Reacties

  • Nog geen reacties beschikbaar